TimeCST,TemperatureF,Dew PointF,Humidity,Sea Level PressureIn,VisibilityMPH,Wind Direction,Wind SpeedMPH,Gust SpeedMPH,PrecipitationIn,Events,Conditions,WindDirDegrees,DateUTC
12:53 AM,19.0,16.0,88,29.85,10.0,NE,9.2,-,N/A,,Clear,50,2012-12-13 06:53:00
1:53 AM,18.0,16.0,92,29.88,10.0,NE,6.9,-,N/A,,Clear,40,2012-12-13 07:53:00
2:53 AM,17.1,14.0,88,29.94,10.0,North,6.9,-,N/A,,Clear,350,2012-12-13 08:53:00
3:53 AM,16.0,12.9,88,29.97,9.0,North,9.2,-,N/A,,Clear,350,2012-12-13 09:53:00
4:53 AM,14.0,10.9,88,30.01,10.0,NW,9.2,-,N/A,,Clear,310,2012-12-13 10:53:00
5:41 AM,15.8,12.2,86,29.97,10.0,NNW,10.4,-,N/A,,Scattered Clouds,340,2012-12-13 11:41:00
5:50 AM,15.8,12.2,86,29.97,10.0,NNW,10.4,-,N/A,,Mostly Cloudy,340,2012-12-13 11:50:00
5:53 AM,16.0,12.0,84,30.06,10.0,North,10.4,-,N/A,,Mostly Cloudy,350,2012-12-13 11:53:00
6:53 AM,17.1,15.1,92,30.09,10.0,North,6.9,-,N/A,,Overcast,10,2012-12-13 12:53:00
7:53 AM,17.1,14.0,88,30.10,10.0,NE,4.6,-,N/A,,Mostly Cloudy,50,2012-12-13 13:53:00
8:09 AM,15.8,12.2,86,30.02,10.0,NNE,3.5,-,N/A,,Scattered Clouds,20,2012-12-13 14:09:00
8:53 AM,17.1,14.0,88,30.12,10.0,Calm,Calm,-,N/A,,Clear,0,2012-12-13 14:53:00
9:53 AM,18.0,15.1,88,30.14,10.0,Calm,Calm,-,N/A,,Clear,0,2012-12-13 15:53:00
10:53 AM,19.9,16.0,85,30.15,10.0,West,3.5,-,N/A,,Clear,280,2012-12-13 16:53:00
11:34 AM,21.2,17.6,86,30.07,10.0,SSW,4.6,-,N/A,,Mostly Cloudy,210,2012-12-13 17:34:00
11:53 AM,21.9,18.0,85,30.14,10.0,West,3.5,-,N/A,,Overcast,260,2012-12-13 17:53:00
12:18 PM,21.2,17.6,86,30.04,10.0,Calm,Calm,-,N/A,,Overcast,0,2012-12-13 18:18:00
12:53 PM,23.0,18.0,81,30.11,10.0,East,3.5,-,N/A,,Overcast,80,2012-12-13 18:53:00
1:18 PM,24.8,17.6,74,30.01,10.0,NE,3.5,-,N/A,,Scattered Clouds,40,2012-12-13 19:18:00
1:53 PM,21.9,18.0,85,30.09,10.0,Calm,Calm,-,N/A,,Clear,0,2012-12-13 19:53:00
2:53 PM,23.0,18.0,81,30.08,10.0,East,3.5,-,N/A,,Clear,100,2012-12-13 20:53:00
3:45 PM,21.2,17.6,86,30.01,10.0,South,10.4,-,N/A,,Mostly Cloudy,190,2012-12-13 21:45:00
3:53 PM,21.9,18.0,85,30.09,10.0,South,11.5,-,N/A,,Mostly Cloudy,180,2012-12-13 21:53:00
4:17 PM,21.2,17.6,86,30.01,10.0,South,4.6,-,N/A,,Partly Cloudy,180,2012-12-13 22:17:00
5:37 PM,17.6,14.0,86,29.99,10.0,SE,8.1,-,N/A,,Scattered Clouds,140,2012-12-13 23:37:00
6:39 PM,17.6,17.6,100,29.97,1.8,ESE,5.8,-,N/A,,Overcast,110,2012-12-14 00:39:00
6:45 PM,17.6,17.6,100,29.97,0.5,East,8.1,-,N/A,Fog,Light Freezing Fog,100,2012-12-14 00:45:00
7:28 PM,19.4,17.6,93,29.95,0.5,East,6.9,-,N/A,Fog,Light Freezing Fog,100,2012-12-14 01:28:00
7:42 PM,19.4,19.4,100,29.96,1.0,SE,8.1,-,N/A,,Mist,130,2012-12-14 01:42:00
7:53 PM,21.0,19.0,92,30.04,1.5,SE,9.2,-,N/A,,Overcast,130,2012-12-14 01:53:00
7:56 PM,19.4,19.4,100,29.95,3.0,ESE,9.2,-,N/A,,Overcast,120,2012-12-14 01:56:00
8:24 PM,19.4,17.6,93,29.94,8.0,ESE,9.2,-,N/A,,Scattered Clouds,110,2012-12-14 02:24:00
8:53 PM,17.1,15.1,92,30.03,9.0,East,5.8,-,N/A,,Partly Cloudy,100,2012-12-14 02:53:00
9:33 PM,17.6,15.8,93,29.94,9.0,ESE,9.2,-,N/A,,Partly Cloudy,120,2012-12-14 03:33:00
9:53 PM,17.1,14.0,88,30.02,9.0,ESE,8.1,-,N/A,,Clear,110,2012-12-14 03:53:00
10:53 PM,19.9,17.1,89,30.00,10.0,ESE,11.5,-,N/A,,Clear,120,2012-12-14 04:53:00
11:53 PM,19.9,17.1,89,29.99,10.0,ESE,9.2,-,N/A,,Clear,110,2012-12-14 05:53:00